sat.trackr.live / text

‹ back to catalog

STARLINK-35539

NORAD 65915 · 2025-225F

PAYLOAD ACTIVE UNKNOWN

§ Identity

Operator
Country
US
Launch date
2025-10-08
Launch site
AFWTR
Launch vehicle
Mass (kg)
RCS (m²)

Purposes: comms

External: N2YO · Heavens-Above · Gunter

§ Orbital elements

Epoch: 2026-09-20T11:50:25.849536Z

Period
93.85 min
Inclination
53.1612°
Eccentricity
0.0001266
Mean motion
15.34407817 rev/d
Perigee alt
461.8 km
Apogee alt
463.5 km
Semi-major
6,840.8 km
B*
7.3209e-4
RAAN
339.4253°
Arg perigee
83.5374°
Mean anomaly
276.5773°
Rev number
5,425

§ Raw data

STARLINK-355391 65915U 25225F   26263.49335474  .00024445  00000+0  73209-3 0  99922 65915  53.1612 339.4253 0001266  83.5374 276.5773 15.34407817 54253

JSON: /api/v1/satellites/65915 · /tle

For live sub-satellite position, see the globe view (requires WebGL).

§ Visibility from observer

Set your observer location to see the next 7 days of passes ≥ 10°. The values pass through the URL so the page stays shareable.

No JS? Fill the form by hand. The geolocation button needs JavaScript.